Date String (YYYY-MM-DD hh:mm:ss) UTC,Instrument flags,Ambient pressure (hPa),Sample flow (lpm),Bypass flow (lpm),Sample temperature (°C),Ambient temperature (°C),ASC tube jacket temperature (°C),LED temperature (°C),Box temperature (°C),Sample RH (%),Span deviation,Mass concentration (μg/m³),Mass concentration (μg/m³),Mass concentration (μg/m³)
DateTimeUTC,F1_M11,P_M11,Q1_M11,Q2_M11,T1_M11,T2_M11,T3_M11,T4_M11,T5_M11,U1_M11,ZSPAN_M11,X0_M11,X2_M11,X1_M11
2022-10-16 22:00:00,,0833.0,5.00,0.00,29.6,28.5,00.0,38.3,31.5,14.2,-000.7,0012.66,0007.33,0006.78
2022-10-16 22:01:00,,0833.1,5.00,0.00,29.7,28.5,00.0,38.3,31.5,14.2,-000.4,0011.91,0007.33,0006.80
2022-10-16 22:02:00,,0833.1,5.00,0.00,29.7,28.5,00.0,38.3,31.5,14.2,-000.6,0011.82,0007.31,0006.80
2022-10-16 22:03:00,,0833.1,5.00,0.00,29.7,28.5,00.0,38.4,31.5,14.3,-000.7,0011.80,0007.34,0006.81
2022-10-16 22:04:00,,0833.1,5.00,0.00,29.7,28.5,00.0,38.4,31.5,14.2,-000.5,0011.43,0007.39,0006.86
2022-10-16 22:05:00,,0833.0,4.99,0.00,29.7,28.4,00.0,38.4,31.5,14.2,-000.2,0011.40,0007.46,0006.91
2022-10-16 22:06:00,,0833.1,5.00,0.00,29.7,28.4,00.0,38.4,31.5,14.2,-000.4,0011.34,0007.50,0006.96
2022-10-16 22:07:00,,0833.0,5.00,0.00,29.7,28.4,00.0,38.4,31.6,14.2,0000.1,0011.16,0007.53,0007.01
2022-10-16 22:08:00,,0833.0,5.00,0.00,29.7,28.4,00.0,38.4,31.5,14.2,-000.1,0010.61,0007.59,0007.05
2022-10-16 22:09:00,,0833.1,5.00,0.00,29.7,28.4,00.0,38.4,31.5,14.2,0000.2,0010.61,0007.57,0007.05
2022-10-16 22:10:00,,0833.0,5.00,0.00,29.7,28.5,00.0,38.4,31.6,14.2,0000.5,0010.58,0007.56,0007.04
2022-10-16 22:11:00,,0833.1,5.00,0.00,29.7,28.5,00.0,38.4,31.6,14.1,0000.5,0010.40,0007.50,0007.01
2022-10-16 22:12:00,,0833.0,5.00,0.00,29.8,28.6,00.0,38.5,31.6,14.1,0000.5,0010.89,0007.48,0006.97
2022-10-16 22:13:00,,0833.0,5.01,0.00,29.8,28.6,00.0,38.5,31.6,14.0,0001.0,0011.08,0007.48,0006.95
2022-10-16 22:14:00,,0833.1,4.99,0.00,29.8,28.6,00.0,38.5,31.6,14.0,0002.0,0011.31,0007.45,0006.91
2022-10-16 22:15:00,,0833.1,4.99,0.00,29.8,28.7,00.0,38.5,31.7,14.1,0002.1,0011.92,0007.36,0006.84
2022-10-16 22:16:00,,0833.0,5.00,0.00,29.8,28.7,00.0,38.5,31.7,14.0,0001.2,0012.27,0007.29,0006.78
2022-10-16 22:17:00,,0833.1,5.02,0.00,29.8,28.6,00.0,38.5,31.7,14.0,0000.3,0012.48,0007.24,0006.71
2022-10-16 22:18:00,,0833.1,5.00,0.00,29.8,28.6,00.0,38.5,31.7,14.0,0000.0,0012.50,0007.18,0006.66
2022-10-16 22:19:00,,0833.0,5.00,0.00,29.9,28.7,00.0,38.5,31.7,14.0,0000.0,0012.86,0007.15,0006.62
2022-10-16 22:20:00,,0833.0,5.00,0.00,29.9,28.7,00.0,38.6,31.7,14.0,0000.0,0013.15,0007.15,0006.61
2022-10-16 22:21:00,,0833.0,5.00,0.00,29.9,28.7,00.0,38.6,31.8,14.0,0000.0,0013.37,0007.12,0006.59
2022-10-16 22:22:00,,0833.0,4.98,0.00,29.9,28.8,00.0,38.6,31.8,14.0,0000.0,0013.30,0007.10,0006.57
2022-10-16 22:23:00,,0833.0,5.01,0.00,29.9,28.8,00.0,38.6,31.8,13.9,0000.0,0012.70,0007.07,0006.55
2022-10-16 22:24:00,,0833.0,5.00,0.00,29.9,28.8,00.0,38.6,31.8,13.8,0000.0,0012.61,0007.08,0006.55
2022-10-16 22:25:00,,0833.0,5.00,0.00,29.9,28.8,00.0,38.6,31.8,13.8,0000.0,0012.60,0007.11,0006.56
2022-10-16 22:26:00,,0833.0,5.00,0.00,30.0,28.8,00.0,38.6,31.8,13.8,0000.0,0012.36,0007.16,0006.59
2022-10-16 22:27:00,,0833.0,5.00,0.00,30.0,28.8,00.0,38.6,31.8,13.8,0000.0,0012.32,0007.19,0006.61
2022-10-16 22:28:00,,0833.0,5.00,0.00,30.0,28.8,00.0,38.7,31.8,13.8,0000.0,0012.73,0007.20,0006.61
2022-10-16 22:29:00,,0833.0,5.00,0.00,30.0,28.9,00.0,38.7,31.8,13.8,0000.0,0013.00,0007.20,0006.59
2022-10-16 22:30:00,,0833.1,5.01,0.00,30.0,28.9,00.0,38.7,31.9,13.7,0000.0,0012.57,0007.14,0006.56
2022-10-16 22:31:00,,0833.1,5.00,0.00,30.0,28.9,00.0,38.7,31.9,13.8,0000.1,0012.13,0007.08,0006.52
2022-10-16 22:32:00,,0833.1,5.00,0.00,30.0,28.9,00.0,38.7,31.9,13.8,0000.0,0011.94,0007.06,0006.49
2022-10-16 22:33:00,,0833.0,4.99,0.00,30.1,28.9,00.0,38.7,31.9,13.7,0000.0,0011.85,0007.03,0006.48
2022-10-16 22:34:00,,0833.0,5.00,0.00,30.1,28.9,00.0,38.8,31.9,13.7,0000.0,0011.81,0007.01,0006.49
2022-10-16 22:35:00,,0833.0,5.01,0.00,30.1,28.9,00.0,38.8,31.9,13.7,0000.0,0011.86,0006.97,0006.47
2022-10-16 22:36:00,,0832.9,5.00,0.00,30.1,29.0,00.0,38.8,32.0,13.7,0000.7,0011.65,0006.89,0006.43
2022-10-16 22:37:00,,0833.0,4.99,0.00,30.1,29.0,00.0,38.8,32.0,13.5,0001.1,0011.03,0006.84,0006.39
2022-10-16 22:38:00,,0833.0,5.00,0.00,30.1,28.9,00.0,38.8,32.0,13.5,0001.6,0010.76,0006.76,0006.34
2022-10-16 22:39:00,,0833.1,5.00,0.00,30.1,28.9,00.0,38.8,32.0,13.5,0001.2,0009.88,0006.72,0006.31
2022-10-16 22:40:00,,0833.1,5.01,0.00,30.2,28.9,00.0,38.8,32.0,13.5,0001.1,0009.81,0006.71,0006.30
2022-10-16 22:41:00,,0833.1,5.00,0.00,30.2,29.0,00.0,38.9,32.0,13.5,0000.7,0009.82,0006.70,0006.28
2022-10-16 22:42:00,,0833.0,4.99,0.00,30.2,28.9,00.0,38.9,32.0,13.5,0000.0,0009.89,0006.72,0006.28
2022-10-16 22:43:00,,0833.0,5.00,0.00,30.2,29.0,00.0,38.9,32.0,13.4,0001.0,0010.22,0006.73,0006.30
2022-10-16 22:44:00,,0833.0,5.01,0.00,30.2,29.0,00.0,38.9,32.0,13.4,0000.0,0010.86,0006.74,0006.31
2022-10-16 22:45:00,,0833.1,4.99,0.00,30.2,29.0,00.0,38.9,32.1,13.4,0000.0,0010.80,0006.74,0006.31
2022-10-16 22:46:00,,0833.0,5.00,0.00,30.2,29.1,00.0,38.9,32.1,13.5,0000.8,0010.76,0006.75,0006.32
2022-10-16 22:47:00,,0833.0,4.99,0.00,30.3,29.1,00.0,38.9,32.1,13.4,0000.5,0010.84,0006.78,0006.34
2022-10-16 22:48:00,,0833.0,5.00,0.00,30.3,29.1,00.0,38.9,32.1,13.4,0000.8,0010.99,0006.82,0006.36
2022-10-16 22:49:00,,0833.1,5.02,0.00,30.3,29.1,00.0,39.0,32.1,13.4,0000.1,0011.24,0006.84,0006.37
2022-10-16 22:50:00,,0833.0,5.00,0.00,30.3,29.1,00.0,39.0,32.1,13.3,0000.1,0011.29,0006.83,0006.36
2022-10-16 22:51:00,,0833.1,4.99,0.00,30.3,29.1,00.0,39.0,32.1,13.3,0000.6,0011.17,0006.84,0006.35
2022-10-16 22:52:00,,0833.1,5.01,0.00,30.3,29.1,00.0,39.0,32.1,13.3,0000.2,0011.29,0006.88,0006.37
2022-10-16 22:53:00,,0833.1,5.01,0.00,30.3,29.1,00.0,39.0,32.1,13.3,0000.4,0011.19,0006.87,0006.38
2022-10-16 22:54:00,,0833.1,5.00,0.00,30.3,29.1,00.0,39.0,32.2,13.3,0000.6,0010.88,0006.90,0006.37
2022-10-16 22:55:00,,0833.0,4.99,0.00,30.4,29.2,00.0,39.0,32.2,13.3,0000.7,0010.56,0006.91,0006.37
2022-10-16 22:56:00,,0833.0,5.01,0.00,30.4,29.1,00.0,39.0,32.2,13.3,0001.0,0010.73,0006.92,0006.34
2022-10-16 22:57:00,,0833.1,4.99,0.00,30.4,29.2,00.0,39.1,32.2,13.3,0000.6,0010.71,0006.91,0006.33
2022-10-16 22:58:00,,0833.1,5.01,0.00,30.4,29.2,00.0,39.1,32.2,13.3,0001.4,0010.59,0006.86,0006.32
2022-10-16 22:59:00,,0833.1,5.00,0.00,30.4,29.2,00.0,39.1,32.2,13.2,0000.4,0010.70,0006.84,0006.30
